Погода в Ананьино

Россия / Ярославская область     57°29′18″N   39°57′51″E
темп.,
°C
ветер,
м/с
пор.,
м/с
влажн.,
%
обл.,
%
осадки,
мм/ч
давл.,
гПа
погр.,
м
21 апреля, ср
ср2100:00+3в61485100 0.2 1017814
03:00+2в71495100 0.9 1014720
06:00+1в81796100 2.6 1009815
09:00+2в81797100 5.6 1006831
12:00+5вюв91893100 1.8 10021210
15:00+3ю81496100 3.4 1003754
18:00+3ююз61092100 0.1 1006970
21:00+3юз5990100 0.2 1009705
22 апреля, чт
чт2200:00+3юз4993100 0.1 1011457
03:00+3ююз3894100 0.1 1012298
06:00+3ю379599 0.0 1013242
09:00+6ю4784100 0.0 1014395
12:00+10ю576298 0.0 10151300
15:00+10ююз5763100 0.4 10151310
18:00+10ю58665 0.1 1016616
21:00+6ю512845 0.1 1017355
23 апреля, пт
пт2300:00+5ююв4119011 0.0 1017271
03:00+4ююв4128948 0.0 1017268
06:00+5ююв513905 0.0 1017349
09:00+10ю6107672 0.0 1017510
12:00+15ю686063 0.0 10161137
15:00+16ю685777 1.6 10161495
18:00+15ю496163 0.6 1015576
21:00+10ююв412805 0.8 1016306
24 апреля, сб
сб2400:00+9ююв413835 0.0 1015311
03:00+8юв513855 0.0 1013300
06:00+8юв51485100 0.0 1012416
09:00+12юв71370100 0.1 10101120
12:00+15ююв9135324 0.4 10081966
15:00+13юв8126670 1.1 10071454
18:00+6юз6989100 1.4 1007601
21:00+2з5899100 6.1 1008398
25 апреля, вс
вс2500:00+4з4996100 4.9 1007587
03:00+4зюз3793100 5.1 1008392
06:00+4юз2693100 0.0 1008263
09:00+6зюз4677100 0.0 1008691
12:00+8зюз565889 0.4 10091690
15:00+9зюз675390 0.8 10101810
18:00+7з56605 0.1 10111350
21:00+3з38800 0.1 1013214